Regional Weather Roundup
Issued by NWS

Home | Current Version | Previous Version | Graphics & Text | Print | Product List | Glossary On
Versions: 1 2 3 4 5 6 7 8 9 10 11 12 13 14 15 16 17 18 19 20 21 22 23 24 25 26 27 28 29 30 31 32 33 34 35 36 37 38 39 40 41 42 43 44 45 46 47 48 49 50
000
ASUS43 KBIS 032102
RWRND

NORTH DAKOTA REGIONAL WEATHER ROUNDUP
NATIONAL WEATHER SERVICE BISMARCK ND
400 PM CDT MON AUG 03 2015

NOTE: "FAIR" INDICATES FEW OR NO CLOUDS BELOW 12,000 FEET WITH NO
SIGNIFICANT WEATHER AND/OR OBSTRUCTIONS TO VISIBILITY.


NDZ001>003-009>011-017-032200-
NORTHWEST NORTH DAKOTA

CITY           SKY/WX    TMP DP  RH WIND       PRES   REMARKS
WILLISTON      SUNNY     84  43  23 N8        29.98F
MINOT          SUNNY     78  42  27 SW5       29.98F
MINOT AFB      SUNNY     82  44  26 VRB5      29.97F
$$

NDZ018>021-031>035-040>046-032200-
SOUTHWEST NORTH DAKOTA

CITY           SKY/WX    TMP DP  RH WIND       PRES   REMARKS
BISMARCK       SUNNY     82  47  29 N12       29.98F
DICKINSON      SUNNY     81  48  31 VRB3      29.99F
GARRISON         N/A     78  49  35 N8        29.99F
HETTINGER ARPT SUNNY     83  48  29 NE7       30.01F
$$

NDZ004>008-012>016-024-026-027-054-032200-
NORTHEAST NORTH DAKOTA

CITY           SKY/WX    TMP DP  RH WIND       PRES   REMARKS
GRAND FORKS    MOSUNNY   77  49  37 NW12      29.91F
GRND FRKS AFB  SUNNY     77  48  35 NW10G20   29.93S
DEVILS LAKE    SUNNY     77  45  31 NW15      29.95F
$$

NDZ022-023-025-028>030-036>039-047>053-032200-
SOUTHEAST NORTH DAKOTA

CITY           SKY/WX    TMP DP  RH WIND       PRES   REMARKS
FARGO          SUNNY     80  46  30 N14G20    29.92F
JAMESTOWN      SUNNY     76  45  33 NW7       29.97S
$$



USA.gov is the U.S. government's official web portal to all federal, state and local government web resources and services.